Tracking 27420 objects as of 28-May-2023
HD Live streaming from Space Station
objects crossing your sky now

STARLINK-5800

Track STARLINK-5800 now!
10-day predictions
STARLINK-5800 is classified as:


NORAD ID: 56041
Int'l Code: 2023-042BH
Perigee: 361.3 km
Apogee: 363.0 km
Inclination: 43.0 °
Period: 91.6 minutes
Semi major axis: 6733 km
RCS: Unknown
Launch date: March 24, 2022
Source: United States (US)
Launch site: AIR FORCE EASTERN TEST RANGE (AFETR)
Your satellite tracking list
Your tracking list is empty




NASA's NSSDC Master Catalog

Two Line Element Set (TLE):
1 56041U 23042BH  23148.20759139  .00002070  00000-0  19227-4 0  9995
2 56041  42.9990 164.6080 0001230 256.0903 103.9828 15.71354577 10172
Source of the keplerian elements: AFSPC